Overview Statistics Trail Chart Weather Telemetry Raw packets
 

This is the latest recevied weather packets stored in our database for station/object N0QV. If no packets are shown the sender has not sent any weather packets the latest 10 day(s).

<< 31 32 33 34 35 36 37 >>
Time Temp. Humidity Pressure Rain* Wind** Luminosity Snow
1788457858 26.11° C 81% 1009.4 hPa 7.11 mm - 85 W/m² -
1788457552 26.67° C 75% 1009.2 hPa 0 mm - 38 W/m² -
1788457247 27.22° C 72% 1009.3 hPa 0 mm - 30 W/m² -
1788456942 27.78° C 71% 1009.3 hPa 0 mm - 29 W/m² -
1788456639 27.78° C 69% 1009.6 hPa 0 mm - 41 W/m² -
1788456338 28.33° C 69% 1009.8 hPa 0 mm - 71 W/m² -
1788456034 28.89° C 68% 1009.6 hPa 0 mm - 98 W/m² -
1788455729 30° C 65% 1009.4 hPa 0 mm - 173 W/m² -
1788455424 30° C 65% 1009.3 hPa 0 mm - 210 W/m² -
1788455123 30° C 63% 1009.3 hPa 0 mm - 383 W/m² -
1788454819 29.44° C 63% 1009.2 hPa 0 mm - 689 W/m² -
1788454516 28.89° C 65% 1009.5 hPa 0 mm - 681 W/m² -
1788454212 27.22° C 68% 1009.4 hPa 0 mm - 694 W/m² -
1788453912 26.67° C 70% 1009.8 hPa 0 mm - 102 W/m² -
1788453607 27.22° C 69% 1009.6 hPa 0 mm - 95 W/m² -
1788453302 27.78° C 68% 1009.5 hPa 0 mm - 105 W/m² -
1788452998 28.89° C 65% 1010.2 hPa 0 mm - 306 W/m² -
1788452695 28.89° C 66% 1010.1 hPa 0 mm - 429 W/m² -
1788452390 28.33° C 66% 1009.8 hPa 0 mm - 538 W/m² -
1788452085 28.89° C 66% 1010.1 hPa 0 mm - 472 W/m² -
1788451802 28.89° C 65% 1010.4 hPa 0 mm - 654 W/m² -
1788451480 28.33° C 68% 1010.1 hPa 0 mm - 703 W/m² -
1788451179 27.78° C 69% 1010.2 hPa 0 mm - 668 W/m² -
1788450879 26.67° C 72% 1010.2 hPa 0 mm - 407 W/m² -
1788450576 26.67° C 71% 1010.2 hPa 0 mm - 215 W/m² -

* Rain latest hour (hover to see other rain measurements)
** Current wind speed in m/s (hover to see current wind gust speed)